Hourly Data Report for March 06, 2004

TORONTO CITY
ONTARIO

43°40'00.000" N
79°24'00.000" W
112.50 m
6158355
71508
XTO

Download Data

Hourly Data (March 2004)
Hourly Data Report for March 6, 2004
TIME
LST
Temp Definition
°C
Dew Point Definition
°C
Rel Hum Definition
%
Precip. Amount Definition
mm

Wind Dir Definition
10's deg

Wind Spd Definition
km/h
Visibility Definition
km
Stn Press Definition
kPa
Hmdx Definition


Wind Chill Definition


Weather Definition


00:00 9.6 4.6 71   LegendMM LegendMM LegendMM 98.76     LegendNANA
01:00 8.5 4.3 75   LegendMM LegendMM LegendMM 98.76     LegendNANA
02:00 7.7 4.1 78   LegendMM LegendMM LegendMM 98.75     LegendNANA
03:00 7.7 3.9 77   LegendMM LegendMM LegendMM 98.75     LegendNANA
04:00 7.1 3.7 79   LegendMM LegendMM LegendMM 98.74     LegendNANA
05:00 5.4 1.9 78   LegendMM LegendMM LegendMM 98.79     LegendNANA
06:00 4.2 0.5 77   LegendMM LegendMM LegendMM 98.87     LegendNANA
07:00 3.7 0.1 77   LegendMM LegendMM LegendMM 98.91     LegendNANA
08:00 3.3 -0.4 77   LegendMM LegendMM LegendMM 99.03     LegendNANA
09:00 3.3 -1.0 73   LegendMM LegendMM LegendMM 99.09     LegendNANA
10:00 3.4 -1.4 71   LegendMM LegendMM LegendMM 99.12     LegendNANA
11:00 3.4 -1.8 69   LegendMM LegendMM LegendMM 99.14     LegendNANA
12:00 3.0 -2.6 67   LegendMM LegendMM LegendMM 99.21     LegendNANA
13:00 3.4 -2.6 65   LegendMM LegendMM LegendMM 99.26     LegendNANA
14:00 3.2 -3.2 63   LegendMM LegendMM LegendMM 99.33     LegendNANA
15:00 2.9 -2.9 66   LegendMM LegendMM LegendMM 99.44     LegendNANA
16:00 2.6 -3.2 66   LegendMM LegendMM LegendMM 99.54     LegendNANA
17:00 2.0 -3.8 65   LegendMM LegendMM LegendMM 99.65     LegendNANA
18:00 1.5 -4.0 67   LegendMM LegendMM LegendMM 99.77     LegendNANA
19:00 0.7 -4.4 69   LegendMM LegendMM LegendMM 99.93     LegendNANA
20:00 0.4 -4.3 71   LegendMM LegendMM LegendMM 100.05     LegendNANA
21:00 0.2 -4.3 72   LegendMM LegendMM LegendMM 100.18     LegendNANA
22:00 0.1 -4.2 73   LegendMM LegendMM LegendMM 100.24     LegendNANA
23:00 -0.1 -4.3 73   LegendMM LegendMM LegendMM 100.28     LegendNANA

Notes on Data Quality.

Legend

  • E = Estimated
  • M = Missing
  • NA = Not Available*
  • [empty] = Indicates an unobserved value
Date modified: